Regional Weather Roundup
Issued by NWS

Home | Current Version | Previous Version | Text Only | Print | Product List | Glossary On
Versions: 1 2 3 4 5 6 7 8 9 10 11 12 13 14 15 16 17 18 19 20 21 22 23 24 25 26 27 28 29 30 31 32 33 34 35 36 37 38 39 40 41 42 43 44 45 46 47 48 49 50
000
ASUS44 KJAN 280220
RWRMS

MISSISSIPPI HOURLY WEATHER ROUNDUP
NATIONAL WEATHER SERVICE JACKSON MS
900 PM CDT SAT AUG 27 2016

NOTE: "FAIR: INDICATES FEW OR NO CLOUDS BELOW 12,000 FEET WITH NO
SIGNIFICANT WEATHER AND/OR OBSTRUCTIONS TO VISIBILITY.

MSZ001>002-007>008-010>013-018>021-025>028-034>036-280300-
NORTHWEST MISSISSIPPI

CITY           SKY/WX    TMP DP  RH WIND       PRES   REMARKS
CLARKSDALE     CLEAR     81  79  94 NE3       30.02R
GREENWOOD      CLEAR     77  74  90 CALM      30.00R
GREENVILLE     CLEAR     79  74  84 CALM      30.00R
OXFORD         FAIR      77  72  83 NE5       30.06R
TUNICA         CLEAR     77  73  88 NE3       30.04R
$$

MSZ003>006-009-014>017-022>024-029>033-037>039-280300-
NORTHEAST MISSISSIPPI

CITY           SKY/WX    TMP DP  RH WIND       PRES   REMARKS
COLUMBUS AFB   CLEAR     79  74  84 SE2       30.01R
CORINTH        FAIR      77  72  83 CALM      30.04R
GOLDN TRIANGLE CLEAR     81  66  61 CALM      30.01R
TUPELO         CLEAR     79  70  74 N6        30.03R
$$

MSZ040-058-280300-
CENTRAL MISSISSIPPI

CITY           SKY/WX    TMP DP  RH WIND       PRES   REMARKS
JACKSON INTL   PTCLDY    80  75  84 CALM      30.00R
JACKSON HAWKNS CLOUDY    82  72  71 CALM      30.00R
MERIDIAN KEY   CLEAR     79  71  76 CALM      30.02R
MERIDIAN NAS   PTCLDY    82  67  60 CALM      30.02R
$$

MSZ059>079-280300-
SOUTH MISSISSIPPI

CITY           SKY/WX    TMP DP  RH WIND       PRES   REMARKS
BROOKHAVEN     FAIR     N/A N/A N/A CALM      30.02R
HATTIESBURG    CLOUDY    81  73  76 SE5       30.01R
MCCOMB         CLOUDY    80  74  81 CALM      30.00R
NATCHEZ        NOT AVBL
PINE BELT      CLOUDY    63 N/A N/A S3        30.03R
$$

MSZ080>082-280300-
COASTAL MISSISSIPPI

CITY           SKY/WX    TMP DP  RH WIND       PRES   REMARKS
BAY ST LOUIS   PTCLDY    81  73  78 SE5       29.99R
BILOXI         PTCLDY    78  78 100 NE3       29.98R
PASCAGOULA     CLEAR     76  76 100 CALM      29.99R
GULFPORT       PTCLDY    82  78  88 NE5       29.98R HX  91
$$

LAZ007>009-015>016-023>026-280300-
NORTHEAST LOUISIANA

CITY           SKY/WX    TMP DP  RH WIND       PRES   REMARKS
BASTROP        FAIR      76  75  98 CALM      30.00R
TALLULAH/VBURG CLOUDY    80  76  87 CALM      29.98R
$$



USA.gov is the U.S. government's official web portal to all federal, state and local government web resources and services.